Location: ???????
(41.2533°N, 22.7960°E)
Time: 23:25:02
(UTC+00:00)

Daily predictions for brighter satellites

Satellite Brightness Start Highest point End
(mag) Time Altitude Azimuth Time Altitude Azimuth Time Altitude Azimuth
USA 267 3.5 16:26:11 10° ESE 16:32:34 57° NE 16:38:57 10° NW
Cosmos 1766 4.2 16:32:51 10° SSE 16:36:07 26° E 16:39:24 10° NNE
Cosmos 1733 3.1 16:33:02 10° S 16:36:44 65° E 16:40:26 10° NNE
Cosmos 1378 Rocket 4.2 16:34:26 10° NNE 16:38:24 33° ENE 16:42:18 10° SE
ARGOS 4.2 16:33:48 10° S 16:38:58 51° W 16:44:12 10° NNW
CZ-2C R/B 3.5 16:40:02 10° SW 16:41:00 11° SSW 16:42:00 10° S
Cosmos 2279 Rocket 4.0 16:34:50 10° N 16:41:06 70° E 16:47:19 10° SSE
ASTEX 1 3.4 16:36:11 10° NNE 16:41:08 63° E 16:46:05 10° S
Cosmos 1242 Rocket 2.6 16:38:26 10° S 16:42:00 83° W 16:45:33 10° N
CZ-4 R/B 4.4 16:38:12 10° SSE 16:42:16 67° ENE 16:46:22 10° N
Meteor 2-10 4.2 16:40:24 10° S 16:45:58 63° E 16:51:26 10° NNE
Cosmos 1733 Rocket 3.1 16:42:54 10° S 16:47:20 84° E 16:51:48 10° N
HJ-1C 4.3 16:46:48 10° SE 16:49:25 25° ENE 16:52:04 10° NNE
Cosmos 2221 Rocket 3.6 16:45:19 10° N 16:49:49 62° E 16:54:18 10° SSE
OAO 2 Rocket 4.1 16:45:31 10° WSW 16:50:02 37° S 16:54:14 12° ESE
Cosmos 2227 Rocket 3.9 16:46:00 10° NW 16:51:10 37° WSW 16:56:18 10° S
Cosmos 2322 Rocket 3.3 16:50:35 10° SSE 16:54:49 22° E 16:59:02 10° NE
PSLV R/B 3.5 16:51:49 10° SSE 16:55:29 79° ENE 16:59:09 10° N
Spot 1 3.9 16:53:56 10° NNE 16:58:07 79° ESE 17:02:10 10° S
CZ-4B R/B 3.2 16:53:44 10° SSE 16:58:59 59° ENE 17:04:21 10° N
Cosmos 1980 Rocket 2.9 16:55:45 10° SW 17:01:18 59° WNW 17:06:52 10° NNE
ISS -3.7 16:58:36 10° NW 17:01:58 62° NNE 17:04:20 18° ESE
Cosmos 1470 3.9 17:00:03 10° SE 17:02:58 21° E 17:05:54 10° NE
IRIDIUM 106 4.4 16:58:03 10° SSE 17:03:06 54° E 17:08:12 10° NNE
Cosmos 968 Rocket 3.8 17:01:33 10° S 17:06:29 43° ESE 17:11:25 10° NNE
Cosmos 540 Rocket 4.3 17:01:34 10° NNW 17:06:33 54° WSW 17:11:30 10° S
COSMO-SKYMED 1 3.8 17:04:36 10° N 17:08:46 46° WNW 17:12:54 10° SW
USA 229 DEB 4.5 17:02:13 10° NW 17:09:36 63° WSW 17:17:25 10° SSE
USA 229 4.5 17:02:18 10° NW 17:09:42 64° WSW 17:17:31 10° SSE
Cosmos 1726 2.3 17:11:11 10° SSW 17:14:48 74° W 17:18:28 10° N
BREEZE-M R/B 2.1 17:16:48 10° WSW 17:18:41 88° SSE 17:20:06 24° ENE
Okean-O 3.9 17:19:28 21° ENE 17:19:54 21° ENE 17:23:14 10° NNE
Cosmos 489 Rocket 4.5 17:15:39 10° SSW 17:22:00 88° ESE 17:28:22 10° NNE
Cosmos 2278 3.9 17:16:51 10° SSW 17:22:32 73° WNW 17:28:13 10° NNE
SL-16 R/B 2.3 17:18:31 10° S 17:24:00 55° ESE 17:29:32 10° NNE
Cosmos 1844 Rocket 3.9 17:21:49 10° N 17:26:22 24° NE 17:27:46 22° ENE
Cosmos 841 Rocket 4.2 17:24:14 10° NNW 17:29:16 54° WSW 17:34:15 10° S
USA 186 3.4 17:32:11 22° NE 17:32:11 22° NE 17:34:00 10° NNE
SJ-6B 3.8 17:33:40 27° NE 17:33:40 27° NE 17:36:25 10° N
Cosmos 1908 Rocket 3.5 17:30:18 10° S 17:34:37 87° W 17:38:59 10° N
Feng Yun 1-1 Rocket 4.1 17:30:04 10° SSE 17:35:33 75° ENE 17:40:58 10° N
Helios 1B 4.4 17:32:54 10° NNE 17:37:13 65° ESE 17:41:30 10° S
Cosmos 1437 Rocket 2.5 17:35:48 10° S 17:39:33 89° W 17:43:18 10° N
Meteor 1-24 Rocket 3.7 17:34:33 10° N 17:39:42 49° ENE 17:42:30 26° SE
OBJECT-B 3.1 17:42:56 10° N 17:42:56 10° N 17:42:57 10° N
IGS 5A 4.1 17:42:00 36° ENE 17:42:00 36° ENE 17:45:36 10° N
Cosmos 2026 Rocket 3.9 17:36:17 10° SSE 17:42:10 55° E 17:48:03 10° NNE
Cosmos 1782 Rocket 3.5 17:38:26 10° S 17:42:41 58° E 17:46:58 10° NNE
Cosmos 2263 Rocket 2.8 17:39:46 10° NNW 17:45:21 56° WSW 17:50:52 10° S
Okean O Rocket 2.0 17:42:12 10° S 17:46:30 63° WSW 17:50:51 10° NNW
CZ-4 R/B 1.7 17:42:31 10° S 17:46:40 71° WSW 17:50:51 10° NNW
YAOGAN 1 3.5 17:43:01 10° S 17:47:12 49° W 17:51:24 10° NNW
Nadezhda 4 Rocket 4.5 17:43:33 10° SSW 17:49:48 64° W 17:56:06 10° N
SL-4 R/B 2.3 17:45:40 10° NW 17:50:11 68° NNE 17:51:15 50° E
Cosmos 1570 Rocket 3.9 17:45:48 10° NNW 17:51:05 79° ENE 17:53:49 29° SSE
Meteor 1-22 Rocket 4.0 17:46:36 10° S 17:51:58 81° E 17:57:34 10° NNE
Cosmos 1025 Rocket 3.4 17:50:52 10° N 17:54:27 44° NE 17:54:27 44° NE
Cosmos 1553 Rocket 4.5 17:50:01 10° N 17:55:53 38° ENE 17:56:25 37° E
Cosmos 2285 Rocket 4.1 17:50:11 10° NNW 17:56:33 79° WSW 18:02:35 12° SSE
Cosmos 1844 4.4 17:52:36 10° N 17:57:37 33° ENE 17:57:41 33° ENE
Cosmos 2227 4.3 17:53:30 10° NNW 17:59:07 74° WSW 18:02:54 21° SSE
CSL-04 Debris 4.0 18:02:19 35° SSE 18:04:40 77° ENE 18:10:04 10° N
Lacrosse 4 Rocket 1.5 18:04:53 10° SSW 18:08:20 64° SSW 18:08:20 64° SSW
Cosmos 2360 Rocket 2.1 18:04:31 10° S 18:10:04 60° ESE 18:15:37 10° NNE
USA 267 4.1 18:11:07 18° SSE 18:15:39 44° SW 18:21:52 10° WNW
Cosmos 1975 Rocket 3.1 18:11:41 10° N 18:15:40 72° N 18:15:40 72° N
Cosmos 1486 Rocket 3.9 18:11:40 10° S 18:16:57 73° ESE 18:22:17 10° NNE
Cosmos 2208 Rocket 4.1 18:12:57 10° NNW 18:18:21 77° WSW 18:19:55 47° S
CZ-3 Stage 3 4.5 18:13:10 10° WSW 18:19:20 41° S 18:26:46 29° SE
Meteor 2-5 Rocket 4.1 18:17:59 10° NNW 18:23:25 59° W 18:27:14 20° SSW
USA 81 4.3 18:26:04 10° N 18:31:18 67° W 18:32:46 46° SSW
CSL-04 Rocket 3.8 18:30:30 52° SSW 18:31:42 70° WSW 18:37:06 10° NNW
OAO 2 Rocket 4.5 18:29:47 10° WSW 18:33:10 32° SW 18:33:10 32° SW
Resurs 01 Rocket 3.8 18:37:58 18° N 18:37:58 18° N 18:39:09 10° N
ISS -0.7 18:36:17 10° W 18:37:16 14° WSW 18:37:16 14° WSW
Cosmos 2322 Rocket 2.9 18:32:50 10° SW 18:38:24 53° WNW 18:44:00 10° NNE
Aureole 1 Rocket 4.4 18:42:17 10° SSW 18:54:14 24° NNE 18:56:17 10° NNE
Okean-O 4.2 18:57:01 33° WNW 18:57:01 33° WNW 19:00:14 10° NNW
SL-16 R/B 4.3 19:03:57 10° WSW 19:08:27 24° NW 19:12:58 10° N
Cosmos 1844 Rocket 3.6 19:05:04 10° NNW 19:09:27 46° WNW 19:09:27 46° WNW
Cosmos 2278 Rocket 4.5 19:18:45 10° N 19:20:00 15° N 19:20:00 15° N
Cosmos 2360 Rocket 4.4 19:50:11 10° WSW 19:56:37 18° NNW 19:58:46 10° N
